Regional Weather Roundup
Issued by NWS

Home | Current Version | Previous Version | Text Only | Print | Product List | Glossary Off
Versions: 1 2 3 4 5 6 7 8 9 10 11 12 13 14 15 16 17 18 19 20 21 22 23 24 25 26 27 28 29 30 31 32 33 34 35 36 37 38 39 40 41 42 43 44 45 46 47 48 49 50

000
ASUS43 KLMK 042102
RWRKY
KENTUCKY REGIONAL WEATHER ROUNDUP
NATIONAL WEATHER SERVICE LOUISVILLE KY
500 PM EDT FRI SEP 04 2015

NOTE "FAIR" INDICATES FEW OR NO CLOUDS BELOW 12,000 FEET
WITH NO SIGNIFICANT WEATHER AND/OR OBSTRUCTIONS TO VISIBILITY.

KYZ001>023-026-027-061>063-070>075-042200-
WESTERN AND SOUTH CENTRAL KENTUCKY

CITY           SKY/WX    TMP DP  RH WIND       PRES   REMARKS
PADUCAH        FAIR      94  65  38 VRB3      29.99F HX  96
HENDERSON      FAIR      91  64  40 NE3       29.98F HX  93
OWENSBORO      FAIR      94  67  41 S7        30.00F HX  97
HOPKINSVILLE   FAIR      93  65  40 VRB2      29.99F HX  95
BOWLING GREEN  FAIR      95  61  32 VRB6      29.99F HX  95
GLASGOW        FAIR      92  60  33 CALM      30.01S HX  92
$$

KYZ024-025-028>034-038-045-046-053-042200-
NORTH CENTRAL KENTUCKY

CITY           SKY/WX    TMP DP  RH WIND       PRES   REMARKS
LOUISVILLE/SDF FAIR      93  63  36 SW7       29.99F HX  94
LOUISVILLE/LOU FAIR      93  63  36 CALM      30.00F HX  94
FORT KNOX      FAIR      92  64  40 VRB1      30.00F HX  93
$$

KYZ035>037-039>044-047>052-055>060-089>105-042200-
NORTHEAST KENTUCKY

CITY           SKY/WX    TMP DP  RH WIND       PRES   REMARKS
LEXINGTON      FAIR      91  62  37 CALM      30.02F HX  91
COVINGTON      FAIR      92  67  43 SW6       30.01F HX  95
FRANKFORT      CLOUDY    92  63  38 NE3       30.01F HX  93
$$

KYZ054-064>069-076>088-106>120-042200-
SOUTHEAST KENTUCKY

CITY           SKY/WX    TMP DP  RH WIND       PRES   REMARKS
JACKSON        FAIR      82  68  62 CALM      30.05F
LONDON         FAIR      92  61  35 VRB6      30.04F HX  92
SOMERSET       NOT AVBL
MIDDLESBORO    FAIR      89  65  43 CALM      30.03F HX  91
MONTICELLO     FAIR      93  64  38 CALM      30.05F HX  94
$$




USA.gov is the U.S. government's official web portal to all federal, state and local government web resources and services.